Weather History for Covington, KY

Change the Weather History Date:

Tuesday, November 27, 2012

  Actual Average Record
Temperature  
Mean Temperature 33 °F 40 °F  
Max Temperature 41 °F 48 °F 74 °F (1990)
Min Temperature 24 °F 32 °F 3 °F (1930)
Degree Days  
Heating Degree Days 32 25  
Month to date heating degree days 599 521  
Since 1 July heating degree days 1027 883  
Cooling Degree Days 0 0  
Month to date cooling degree days 0 0  
Year to date cooling degree days 1439 1121  
Moisture  
Dew Point 26 °F    
Average Humidity 70    
Maximum Humidity 89    
Minimum Humidity 50    
Precipitation  
Precipitation 0.05 in 0.12 in 1.63 in (1927)
Month to date precipitation 1.08 3.08  
Year to date precipitation 33.03 38.80  
Snow  
Snow T in 0.00 in 3.50 in (1977)
Month to date snowfall T 0.3  
Since 1 July snowfall T 0.7  
Since 1 September snowfall T 0.7  
Snow Depth 0.00 in    
Sea Level Pressure  
Sea Level Pressure 30.30 in    
Wind  
Wind Speed 7 mph (North)    
Max Wind Speed 14 mph    
Max Gust Speed 18 mph    
Visibility 8 miles    
Events Rain , Snow    
T = Trace of Precipitation, MM = Missing Value Source: NWS Daily Summary

Daily Weather History Graph

Daily Weather History Graph

Search for Another Location

Airport:

Trip Planner

Search our weather history database for the weather conditions in past years. The results will help you decide how hot, cold, wet, or windy it might be!

Date:

Astronomy

Nov. 27, 2012 Rise Set
Actual Time 7:35 AM EST 5:17 PM EST
Civil Twilight 7:05 AM EST 5:46 PM EST
Nautical Twilight 6:32 AM EST 6:19 PM EST
Astronomical Twilight 6:00 AM EST 6:51 PM EST
Moon 4:48 PM EST (11/27) 6:39 AM EST (11/27)
Length of Visible Light 10h 41m
Length of Day
9h 42m
Waxing Gibbous, 99% of the Moon is Illuminated
Nov 27
Waxing Gibbous
Nov 28
Full
Dec 6
Last Quarter
Dec 13
New
Dec 20
First Quarter

Hourly Weather History & Observations

Time (EST) Temp. Windchill Dew Point Humidity Pressure Visibility Wind Dir Wind Speed Gust Speed Precip Events Conditions
12:52 AM 36.0 °F 27.5 °F 32.0 °F 86% 30.25 in 5.0 mi North 12.7 mph - 0.02 in Rain Light Rain
1:52 AM 34.0 °F 26.6 °F 32.0 °F 92% 30.24 in 2.5 mi North 9.2 mph - 0.03 in Snow Light Snow
2:17 AM 35.6 °F 28.0 °F 32.0 °F 87% 30.23 in 2.5 mi NNE 10.4 mph - 0.00 in Snow Light Snow
2:52 AM 35.1 °F 29.3 °F 32.0 °F 89% 30.24 in 5.0 mi NNE 6.9 mph - 0.00 in   Overcast
3:52 AM 35.1 °F 28.6 °F 30.9 °F 85% 30.25 in 7.0 mi North 8.1 mph - N/A   Overcast
4:28 AM 33.8 °F 25.3 °F 30.2 °F 87% 30.24 in 6.0 mi North 11.5 mph - N/A   Mostly Cloudy
4:52 AM 33.1 °F 23.9 °F 28.0 °F 82% 30.25 in 7.0 mi North 12.7 mph - N/A   Mostly Cloudy
5:52 AM 32.0 °F 24.2 °F 27.0 °F 82% 30.26 in 8.0 mi North 9.2 mph - N/A   Scattered Clouds
6:07 AM 32.0 °F 24.2 °F 26.6 °F 80% 30.26 in 8.0 mi North 9.2 mph - N/A   Overcast
6:34 AM 30.2 °F 21.3 °F 26.6 °F 86% 30.28 in 9.0 mi North 10.4 mph - N/A   Scattered Clouds
6:52 AM 30.0 °F 22.4 °F 26.1 °F 85% 30.29 in 9.0 mi North 8.1 mph - N/A   Mostly Cloudy
6:55 AM 30.2 °F 23.4 °F 26.6 °F 86% 30.28 in 9.0 mi North 6.9 mph - N/A   Scattered Clouds
7:52 AM 30.0 °F 21.7 °F 25.0 °F 82% 30.31 in 8.0 mi North 9.2 mph - N/A   Partly Cloudy
8:52 AM 30.9 °F 23.5 °F 26.1 °F 82% 30.33 in 7.0 mi North 8.1 mph - N/A   Partly Cloudy
9:52 AM 33.1 °F 25.5 °F 26.1 °F 75% 30.34 in 8.0 mi North 9.2 mph - N/A   Partly Cloudy
10:52 AM 37.0 °F 29.3 °F 26.1 °F 65% 30.35 in 10.0 mi North 11.5 mph - N/A   Partly Cloudy
11:52 AM 37.9 °F 31.5 °F 25.0 °F 60% 30.35 in 10.0 mi North 9.2 mph - N/A   Partly Cloudy
12:52 PM 37.9 °F 31.5 °F 25.0 °F 60% 30.33 in 10.0 mi North 9.2 mph - N/A   Scattered Clouds
1:52 PM 39.0 °F 34.0 °F 25.0 °F 57% 30.31 in 10.0 mi NNE 6.9 mph - N/A   Scattered Clouds
2:52 PM 39.9 °F 33.9 °F 23.0 °F 51% 30.28 in 10.0 mi North 9.2 mph - N/A   Scattered Clouds
3:52 PM 39.0 °F 34.8 °F 23.0 °F 53% 30.28 in 10.0 mi North 5.8 mph - N/A   Mostly Cloudy
4:52 PM 37.0 °F 31.0 °F 23.0 °F 57% 30.31 in 10.0 mi NNW 8.1 mph - N/A   Mostly Cloudy
5:52 PM 34.0 °F 27.2 °F 21.9 °F 61% 30.32 in 10.0 mi North 8.1 mph - N/A   Mostly Cloudy
6:52 PM 32.0 °F 26.4 °F 21.9 °F 66% 30.33 in 9.0 mi North 5.8 mph - N/A   Scattered Clouds
7:52 PM 32.0 °F 28.7 °F 21.0 °F 64% 30.34 in 9.0 mi NNE 3.5 mph - N/A   Partly Cloudy
8:52 PM 32.0 °F - 21.0 °F 64% 30.34 in 8.0 mi Calm Calm - N/A   Scattered Clouds
9:52 PM 28.9 °F - 21.0 °F 72% 30.34 in 8.0 mi Calm Calm - N/A   Scattered Clouds
10:52 PM 27.0 °F - 21.0 °F 78% 30.33 in 7.0 mi Calm Calm - N/A   Partly Cloudy
11:52 PM 26.1 °F 21.9 °F 19.9 °F 78% 30.33 in 7.0 mi South 3.5 mph - N/A   Partly Cloudy